| time (UTC) | temp C | wind direction | speed KPH | gust KPH | rain 1hr cm | rain 24hr cm | rain mn cm | humidity % | barometer mb |
| 20260504050517 | 17 | 358 | 12.9 | 32.2 | 0.00 | 0.00 | 0.00 | 20 | 1011.4 |
| 20260504045530 | 17 | 8 | 8.0 | 40.2 | 0.00 | 0.00 | 0.00 | 20 | 1011.4 |
| 20260504044522 | 17 | 4 | 8.0 | 19.3 | 0.00 | 0.00 | 0.00 | 22 | 1011.4 |
| 20260504043549 | 17 | 8 | 11.3 | 27.4 | 0.00 | 0.00 | 0.00 | 22 | 1011.4 |
| 20260504042521 | 17 | 12 | 8.0 | 24.1 | 0.00 | 0.00 | 0.00 | 22 | 1011.4 |
| 20260504041529 | 17 | 13 | 8.0 | 19.3 | 0.00 | 0.00 | 0.00 | 21 | 1011.5 |
| 20260504040523 | 17 | 10 | 8.0 | 27.4 | 0.00 | 0.00 | 0.00 | 20 | 1011.4 |
| 20260504035530 | 17 | 5 | 6.4 | 27.4 | 0.00 | 0.00 | 0.00 | 19 | 1011.5 |
| 20260504034522 | 18 | 6 | 8.0 | 24.1 | 0.00 | 0.00 | 0.00 | 22 | 1011.5 |
| 20260504033529 | 18 | 353 | 3.2 | 19.3 | 0.00 | 0.00 | 0.00 | 22 | 1011.6 |
| 20260504032521 | 18 | 355 | 8.0 | 32.2 | 0.00 | 0.00 | 0.00 | 22 | 1011.6 |
| 20260504031517 | 18 | 340 | 3.2 | 24.1 | 0.00 | 0.00 | 0.00 | 21 | 1011.7 |
| 20260504030541 | 18 | 21 | 8.0 | 27.4 | 0.00 | 0.00 | 0.00 | 22 | 1011.7 |
| 20260504025529 | 18 | 3 | 4.8 | 24.1 | 0.00 | 0.00 | 0.00 | 22 | 1011.9 |
| 20260504024622 | 17 | 21 | 6.4 | 27.4 | 0.00 | 0.00 | 0.00 | 22 | 1011.8 |
| 20260504023529 | 17 | 1 | 8.0 | 27.4 | 0.00 | 0.00 | 0.00 | 22 | 1012.1 |
| 20260504022521 | 17 | 5 | 8.0 | 24.1 | 0.00 | 0.00 | 0.00 | 20 | 1012.2 |
| 20260504021529 | 17 | 3 | 11.3 | 32.2 | 0.00 | 0.00 | 0.00 | 20 | 1012.4 |
| 20260504020523 | 17 | 311 | 3.2 | 19.3 | 0.00 | 0.00 | 0.00 | 22 | 1012.4 |
| 20260504015550 | 17 | 25 | 3.2 | 19.3 | 0.00 | 0.00 | 0.00 | 23 | 1012.4 |
| 20260504014521 | 17 | 359 | 11.3 | 24.1 | 0.00 | 0.00 | 0.00 | 21 | 1012.7 |
| 20260504013530 | 17 | 1 | 8.0 | 35.4 | 0.00 | 0.00 | 0.00 | 22 | 1012.5 |
| 20260504012521 | 16 | 1 | 9.7 | 32.2 | 0.00 | 0.00 | 0.00 | 22 | 1012.7 |
| 20260504011529 | 16 | 36 | 6.4 | 24.1 | 0.00 | 0.00 | 0.00 | 23 | 1012.8 |
| 20260504010608 | 17 | 6 | 8.0 | 27.4 | 0.00 | 0.00 | 0.00 | 25 | 1012.8 |
| 20260504005529 | 17 | 8 | 11.3 | 32.2 | 0.00 | 0.00 | 0.00 | 24 | 1012.9 |
| 20260504004520 | 16 | 16 | 9.7 | 24.1 | 0.00 | 0.00 | 0.00 | 25 | 1012.9 |
| 20260504003529 | 16 | 353 | 6.4 | 27.4 | 0.00 | 0.00 | 0.00 | 25 | 1012.7 |
| 20260504002521 | 16 | 22 | 12.9 | 32.2 | 0.00 | 0.00 | 0.00 | 26 | 1012.8 |
| 20260504001530 | 16 | 3 | 6.4 | 35.4 | 0.00 | 0.00 | 0.00 | 26 | 1012.9 |
| 20260504000541 | 16 | 3 | 3.2 | 32.2 | 0.00 | 0.00 | 0.00 | 27 | 1012.9 |
| 20260503235529 | 16 | 24 | 1.6 | 19.3 | 0.00 | 0.00 | 0.00 | 29 | 1013.1 |
| 20260503234521 | 16 | 360 | 4.8 | 24.1 | 0.00 | 0.00 | 0.00 | 29 | 1013.1 |
| 20260503233529 | 16 | 6 | 9.7 | 27.4 | 0.00 | 0.00 | 0.00 | 29 | 1013.2 |
| 20260503232520 | 16 | 3 | 1.6 | 19.3 | 0.00 | 0.00 | 0.00 | 29 | 1013.2 |
| 20260503231529 | 15 | 13 | 8.0 | 27.4 | 0.00 | 0.00 | 0.00 | 29 | 1013.1 |
| 20260503230521 | 15 | 1 | 9.7 | 24.1 | 0.00 | 0.00 | 0.00 | 29 | 1013.3 |
| 20260503225529 | 15 | 358 | 3.2 | 11.3 | 0.00 | 0.00 | 0.00 | 30 | 1013.3 |
| 20260503224521 | 14 | 11 | 6.4 | 19.3 | 0.00 | 0.00 | 0.00 | 31 | 1013.2 |
| 20260503223528 | 13 | 360 | 3.2 | 16.1 | 0.00 | 0.00 | 0.00 | 32 | 1013.1 |
| 20260503222521 | 13 | 19 | 3.2 | 11.3 | 0.00 | 0.00 | 0.00 | 34 | 1013.0 |
| 20260503221522 | 12 | 34 | 3.2 | 11.3 | 0.00 | 0.00 | 0.00 | 36 | 1013.2 |
| 20260503220521 | 12 | 17 | 1.6 | 16.1 | 0.00 | 0.00 | 0.00 | 36 | 1013.3 |
| 20260503215526 | 12 | 18 | 3.2 | 11.3 | 0.00 | 0.00 | 0.00 | 36 | 1013.2 |
| 20260503214520 | 12 | 18 | 1.6 | 8.0 | 0.00 | 0.00 | 0.00 | 37 | 1013.1 |
| 20260503213529 | 12 | 16 | 1.6 | 8.0 | 0.00 | 0.00 | 0.00 | 37 | 1013.2 |
| 20260503212521 | 12 | 31 | 4.8 | 16.1 | 0.00 | 0.00 | 0.00 | 38 | 1013.0 |
| 20260503211529 | 12 | 25 | 3.2 | 8.0 | 0.00 | 0.00 | 0.00 | 38 | 1013.0 |
| 20260503210541 | 12 | 28 | 3.2 | 11.3 | 0.00 | 0.00 | 0.00 | 38 | 1013.1 |
| 20260503205525 | 12 | 21 | 1.6 | 11.3 | 0.00 | 0.00 | 0.00 | 38 | 1013.1 |
| 20260503204521 | 12 | 18 | 3.2 | 11.3 | 0.00 | 0.00 | 0.00 | 39 | 1013.0 |
| 20260503203549 | 12 | 19 | 3.2 | 16.1 | 0.00 | 0.00 | 0.00 | 40 | 1012.8 |
| 20260503202520 | 12 | 27 | 3.2 | 11.3 | 0.00 | 0.00 | 0.00 | 42 | 1012.8 |
| 20260503201528 | 12 | 14 | 1.6 | 8.0 | 0.00 | 0.00 | 0.00 | 45 | 1012.8 |
| 20260503200521 | 12 | 0.0 | 0.0 | 0.00 | 0.00 | 0.00 | 49 | 1012.8 | |
| 20260503195528 | 11 | 15 | 1.6 | 8.0 | 0.00 | 0.00 | 0.00 | 51 | 1012.8 |
| 20260503194539 | 11 | 350 | 0.0 | 8.0 | 0.00 | 0.00 | 0.00 | 54 | 1012.9 |
| 20260503193528 | 11 | 34 | 1.6 | 11.3 | 0.00 | 0.00 | 0.00 | 60 | 1012.8 |
| 20260503192521 | 11 | 33 | 0.0 | 3.2 | 0.00 | 0.00 | 0.00 | 72 | 1012.9 |
| 20260503191529 | 11 | 360 | 1.6 | 8.0 | 0.00 | 0.00 | 0.00 | 77 | 1013.0 |
| 20260503190520 | 10 | 41 | 0.0 | 8.0 | 0.00 | 0.00 | 0.00 | 79 | 1012.9 |
| 20260503185549 | 10 | 0.0 | 0.0 | 0.00 | 0.00 | 0.00 | 79 | 1013.3 | |
| 20260503184546 | 10 | 0.0 | 0.0 | 0.00 | 0.00 | 0.00 | 80 | 1013.2 | |
| 20260503183530 | 10 | 0.0 | 0.0 | 0.00 | 0.00 | 0.00 | 77 | 1013.3 | |
| 20260503182520 | 10 | 0.0 | 0.0 | 0.00 | 0.00 | 0.00 | 77 | 1013.3 | |
| 20260503181529 | 10 | 0.0 | 0.0 | 0.00 | 0.00 | 0.00 | 79 | 1013.4 | |
| 20260503180520 | 10 | 0.0 | 0.0 | 0.00 | 0.00 | 0.00 | 77 | 1013.4 | |
| 20260503175529 | 10 | 0.0 | 0.0 | 0.00 | 0.00 | 0.00 | 72 | 1013.6 | |
| 20260503174521 | 10 | 0.0 | 0.0 | 0.00 | 0.00 | 0.00 | 71 | 1013.6 | |
| 20260503173529 | 10 | 0.0 | 0.0 | 0.00 | 0.00 | 0.00 | 70 | 1013.7 | |
| 20260503172520 | 10 | 0.0 | 0.0 | 0.00 | 0.00 | 0.00 | 64 | 1013.7 | |
| 20260503171522 | 11 | 0.0 | 0.0 | 0.00 | 0.00 | 0.00 | 57 | 1013.7 | |
| 20260503170522 | 11 | 0.0 | 0.0 | 0.00 | 0.00 | 0.00 | 51 | 1013.6 | |
| 20260503150601 | 11 | 2 | 1.6 | 8.0 | 0.00 | 0.00 | 0.00 | 49 | 1014.0 |
| 20260503130520 | 12 | 0.0 | 0.0 | 0.00 | 0.00 | 0.00 | 43 | 1014.5 | |
| 20260503110517 | 13 | 0.0 | 0.0 | 0.00 | 0.00 | 0.00 | 38 | 1014.4 | |
| 20260503081518 | 14 | 0.0 | 0.0 | 0.00 | 0.00 | 0.00 | 37 | 1012.9 | |
| 20260503080519 | 14 | 355 | 1.6 | 11.3 | 0.00 | 0.00 | 0.00 | 39 | 1012.8 |
| 20260503072519 | 16 | 356 | 0.0 | 3.2 | 0.00 | 0.00 | 0.00 | 39 | 1012.7 |
| 20260503071547 | 16 | 31 | 1.6 | 8.0 | 0.00 | 0.00 | 0.00 | 39 | 1012.7 |
| 20260503070527 | 16 | 30 | 0.0 | 8.0 | 0.00 | 0.00 | 0.00 | 40 | 1012.5 |
| 20260503054517 | 16 | 339 | 0.0 | 8.0 | 0.00 | 0.00 | 0.00 | 51 | 1012.1 |
| 20260503053608 | 16 | 321 | 0.0 | 3.2 | 0.00 | 0.00 | 0.00 | 50 | 1012.1 |
| 20260503052559 | 17 | 275 | 1.6 | 3.2 | 0.00 | 0.00 | 0.00 | 49 | 1012.2 |